[[{"header":{"parameterUnit":"m.s-1","parameterCategory":2,"la1":30.2991,"la2":30.254,"lo1":-89.0895,"lo2":-89.0444,"dy":0.0017,"dx":0.0017,"nx":28,"ny":28,"refTime":"2023-07-20T09:00:00:Z","depth":"0","parameterNumber":2,"parameterNumberName":"U-component_of_CURRENTS"},"data":[0,0,0,0,0,0,0,0,0,0,0,0,0,0,0,0,0,0,0,0,0,0,0,0,0,0,0,0,0,0,0,0,0,0,0,0,0,0,0,0,0,0,0,0,0,0,0,0,0,0,0,0,0,0,0,0,0,0,0.2158,0.2159,0,0.2076,0.2074,0.2071,0.2024,0.2026,0.2027,0.2028,0.2311,0.2317,0.2323,0,0,0,0,0,0,0,0,0,0,0,0,0,0.2093,0.2094,0.2158,0.2159,0.2159,0.2076,0.2074,0.2071,0.2024,0.2026,0.2027,0.2029,0.2309,0.2316,0.2323,0,0,0,0,0,0,0,0,0,0,0,0,0,0.2061,0.2094,0.2158,0.2139,0.2137,0.2077,0.2073,0.207,0.2024,0.2026,0.2028,0.203,0.2306,0.2315,0.2324,0.234,0,0,0.2353,0.2357,0,0,0,0,0,0,0,0,0.2063,0.2062,0.2141,0.214,0.2139,0.2077,0.2155,0.2185,0.2023,0.2049,0.2028,0.2031,0.2276,0.2288,0.2238,0.2354,0.2366,0.2354,0.236,0.2364,0.2366,0,0,0,0,0,0,0,0.2066,0.2064,0.2108,0.2142,0.214,0.2073,0.207,0.2156,0.2146,0.2047,0.2047,0.2064,0.2276,0.2229,0.2246,0.237,0.2354,0.2362,0.2368,0.2371,0.2542,0.2541,0,0,0,0,0,0,0.2118,0.2067,0.2111,0.2108,0.2124,0.2074,0.207,0.2081,0.2137,0.2149,0.2063,0.2063,0.2212,0.2235,0.2257,0.2323,0.2363,0.2372,0.2378,0.2543,0.2542,0.2541,0,0,0,0,0,0,0.2116,0.2122,0.2115,0.2099,0.2096,0.2076,0.2086,0.2079,0.2036,0.2148,0.2164,0.2032,0.2214,0.2244,0.2335,0.2334,0.2376,0.2385,0.2544,0.2543,0.2541,0.2431,0,0,0,0,0,0,0.2114,0.2121,0.2125,0.2103,0.21,0.2098,0.2086,0.2076,0.2052,0.205,0.2128,0.2154,0.2218,0.2321,0.2345,0.2347,0.2392,0.2546,0.2543,0.2542,0.2436,0.2426,0.2418,0,0,0,0,0,0.2112,0.2162,0.2125,0.2131,0.2112,0.21,0.2088,0.2069,0.2049,0.2033,0.2081,0.2152,0.2325,0.2328,0.2356,0.2361,0.2547,0.2544,0.2542,0.2441,0.2428,0.2418,0,0,0,0,0,0,0.2128,0.2162,0.2122,0.2172,0.2132,0.2099,0.21,0.2061,0.2064,0.2079,0.2152,0.2182,0.2258,0.232,0.2321,0.24,0.2443,0.2446,0.2356,0.2345,0.2336,0.2324,0.24,0,0,0,0,0,0.2132,0.2159,0.2156,0.2164,0.2172,0.2112,0.2098,0.2075,0.2089,0.2085,0.2127,0.2191,0.2261,0.2314,0.2383,0.2438,0.2472,0.2454,0.2445,0.2436,0.2442,0.2453,0.2445,0.2533,0.2533,0.2533,0,0,0.2122,0.215,0.2153,0.2165,0.2134,0.2091,0.2105,0.2096,0.2057,0.2132,0.2111,0.2173,0.2269,0.2318,0.2357,0.2378,0.2428,0.2433,0.2426,0.2437,0.245,0.2441,0.2434,0.2531,0.2531,0.2532,0,0,0.2102,0.2155,0.2147,0.2116,0.2102,0.2095,0.2092,0.2055,0.2058,0.2046,0.2093,0.2143,0.2222,0.2279,0.2325,0.2309,0.2377,0.2332,0.2283,0.2292,0.2285,0.228,0.2302,0.2299,0.2327,0.2326,0.2326,0,0.2063,0.2068,0.2131,0.2086,0.2077,0.209,0.2044,0.2036,0.2015,0.2051,0.2045,0.2123,0.2197,0.2274,0.225,0.2291,0.2308,0.2319,0.2279,0.2274,0.227,0.2295,0.2293,0.2321,0.2321,0.2322,0.2322,0,0.1995,0.1985,0.1992,0.1941,0.1944,0.1925,0.1949,0.1957,0.1969,0.1957,0.2027,0.2084,0.2139,0.2155,0.2198,0.2217,0.2242,0.2263,0.2304,0.2254,0.2284,0.2284,0.2313,0.2315,0.2316,0.2318,0,0,0.189,0.1939,0.191,0.1881,0.1882,0.1872,0.1895,0.1933,0.1939,0.1942,0.1953,0.203,0.2059,0.211,0.2167,0.2165,0.2135,0.2188,0.2191,0.2204,0.2158,0.22,0.2205,0.214,0.2139,0.2139,0.2186,0,0.1778,0.1729,0.1785,0.1696,0.1685,0.1756,0.1768,0.1808,0.1861,0.1877,0.1981,0.2009,0.2048,0.2068,0.2072,0.2137,0.2131,0.2121,0.2211,0.2214,0.2252,0.2205,0.2124,0.2161,0.2187,0.2187,0.2187,0,0.1636,0.165,0.1602,0.1637,0.1639,0.1586,0.1669,0.1683,0.1779,0.1831,0.1895,0.1957,0.2017,0.2015,0.2091,0.208,0.2103,0.2129,0.2132,0.2215,0.2257,0.2219,0.2161,0.2163,0.2188,0.2188,0.2188,0,0.1527,0.15,0.1499,0.1479,0.1524,0.1535,0.1563,0.1651,0.1711,0.1796,0.1825,0.1914,0.1958,0.1996,0.2092,0.2075,0.2152,0.2143,0.2206,0.221,0.2185,0.2188,0.2138,0.2155,0.2154,0.2154,0.2154,0,0.1402,0.1364,0.1433,0.1397,0.1391,0.1443,0.1449,0.152,0.1608,0.1662,0.1778,0.1832,0.1945,0.2028,0.2078,0.217,0.2155,0.2195,0.2221,0.2145,0.2143,0.2183,0.2152,0.2156,0.2156,0.2155,0.2155,0,0.1268,0.1316,0.1294,0.1332,0.1337,0.1322,0.1375,0.1403,0.1495,0.1564,0.16,0.1774,0.1901,0.2029,0.2122,0.2168,0.2195,0.2272,0.2193,0.2207,0.2244,0.2209,0.2092,0.2059,0.2318,0.2319,0.232,0,0.1191,0.1175,0.122,0.1225,0.123,0.1226,0.1253,0.1343,0.1382,0.1534,0.1568,0.173,0.1845,0.2044,0.2187,0.2313,0.224,0.2279,0.2224,0.2233,0.2213,0.2102,0.2074,0.214,0.2139,0.2139,0.2138,0,0.1047,0.1086,0.1105,0.1119,0.1122,0.1149,0.1167,0.1183,0.1314,0.1385,0.1501,0.1599,0.1847,0.1989,0.2202,0.2259,0.2178,0.2275,0.2283,0.2067,0.1939,0.1926,0.2141,0.2135,0.2135,0.2135,0.2136,0.2136,0.0931,0.0938,0.0983,0.0994,0.1023,0.1051,0.104,0.1095,0.1156,0.1255,0.1385,0.1515,0.1755,0.2068,0.2139,0.2255,0.2197,0.2198,0.2157,0.2047,0.1994,0.2222,0.2253,0.2254,0.2255,0.2256,0.2257,0,0.0793,0.0837,0.085,0.0881,0.0898,0.0946,0.0986,0.0992,0.1028,0.1171,0.1259,0.1492,0.1679,0.1892,0.2136,0.2141,0.2038,0.2102,0.1904,0.1887,0.2099,0.2076,0.207,0.207,0.207,0.207,0.207,0.207,0.0718,0.0715,0.0758,0.0743,0.0775,0.078,0.0795,0.0832,0.0914,0.1058,0.1195,0.1341,0.1669,0.1907,0.2035,0.2009,0.1913,0.1817,0.1852,0.2001,0.2006,0.2011,0.1985,0.196,0.196,0.1572,0.1569,0.1566]},{"header":{"parameterUnit":"m.s-1","parameterCategory":2,"la1":30.2991,"la2":30.254,"lo1":-89.0895,"lo2":-89.0444,"dy":0.0017,"dx":0.0017,"nx":28,"ny":28,"refTime":"2023-07-20T09:00:00:Z","depth":"0","parameterNumber":3,"parameterNumberName":"V-component_of_CURRENTS"},"data":[0,0,0,0,0,0,0,0,0,0,0,0,0,0,0,0,0,0,0,0,0,0,0,0,0,0,0,0,0,0,0,0,0,0,0,0,0,0,0,0,0,0,0,0,0,0,0,0,0,0,0,0,0,0,0,0,0,0,0.0168,0.0169,0,0.0243,0.0244,0.0245,0.0264,0.0263,0.0263,0.0262,0.0429,0.0434,0.0439,0,0,0,0,0,0,0,0,0,0,0,0,0,0.0208,0.0206,0.0168,0.0169,0.0169,0.0243,0.0244,0.0245,0.0264,0.0263,0.0263,0.0262,0.0428,0.0433,0.044,0,0,0,0,0,0,0,0,0,0,0,0,0,0.0229,0.0206,0.0168,0.0186,0.0189,0.0243,0.0244,0.0246,0.0264,0.0263,0.0262,0.0261,0.0426,0.0433,0.044,0.0506,0,0,0.0463,0.0467,0,0,0,0,0,0,0,0,0.0227,0.0227,0.0183,0.0185,0.0188,0.0242,0.032,0.0337,0.0264,0.0237,0.0262,0.0261,0.0375,0.0386,0.0404,0.0513,0.0521,0.0464,0.0469,0.0472,0.0474,0,0,0,0,0,0,0,0.0226,0.0225,0.0199,0.0184,0.0187,0.0249,0.0249,0.0323,0.0313,0.024,0.0241,0.0247,0.0377,0.0396,0.0408,0.0523,0.0464,0.0471,0.0475,0.0478,0.062,0.0619,0,0,0,0,0,0,0.0205,0.0223,0.0197,0.0201,0.0204,0.0248,0.0249,0.0227,0.0311,0.0321,0.0248,0.0247,0.0384,0.0399,0.0414,0.0445,0.0472,0.0479,0.0483,0.0621,0.062,0.0619,0,0,0,0,0,0,0.0205,0.0201,0.0194,0.0215,0.0218,0.0246,0.0223,0.0229,0.0236,0.0315,0.0328,0.0247,0.0384,0.0403,0.0465,0.0454,0.0482,0.0489,0.0621,0.062,0.0619,0.0541,0,0,0,0,0,0,0.0206,0.02,0.019,0.0212,0.0216,0.0224,0.0224,0.0231,0.0241,0.0241,0.032,0.0335,0.0384,0.0453,0.0472,0.0465,0.0495,0.0622,0.0621,0.062,0.0545,0.0538,0.0532,0,0,0,0,0,0.0206,0.019,0.0188,0.0186,0.0195,0.0224,0.0233,0.0253,0.0242,0.0254,0.0293,0.0332,0.0456,0.046,0.0482,0.0476,0.0623,0.0621,0.062,0.0548,0.0539,0.0532,0,0,0,0,0,0,0.0188,0.0191,0.0189,0.0169,0.0195,0.0227,0.024,0.0246,0.0286,0.0282,0.0343,0.0362,0.0404,0.0454,0.0455,0.0508,0.0539,0.0541,0.0476,0.0469,0.0462,0.0448,0.0501,0,0,0,0,0,0.0181,0.0178,0.019,0.0178,0.0184,0.0209,0.0224,0.0234,0.0267,0.0281,0.0331,0.0378,0.0418,0.0453,0.0504,0.0555,0.0566,0.0557,0.0551,0.0545,0.0546,0.0539,0.0531,0.0613,0.0613,0.0613,0,0,0.0169,0.0175,0.017,0.0178,0.0195,0.0208,0.0216,0.0231,0.0246,0.0299,0.0336,0.0366,0.0425,0.0464,0.0487,0.0505,0.0524,0.0543,0.0537,0.0542,0.0536,0.0528,0.0521,0.0612,0.0612,0.0612,0,0,0.015,0.0146,0.0138,0.0161,0.0185,0.0208,0.0205,0.0231,0.0246,0.0292,0.0308,0.0321,0.042,0.0431,0.0456,0.0446,0.0485,0.0466,0.0433,0.0425,0.0418,0.0412,0.0398,0.0392,0.0467,0.0466,0.0466,0,0.0148,0.0126,0.0145,0.015,0.0171,0.0198,0.0201,0.0228,0.0273,0.0284,0.0297,0.0355,0.0396,0.041,0.0398,0.043,0.0438,0.0458,0.0415,0.0409,0.0405,0.0392,0.0386,0.0462,0.0463,0.0463,0.0464,0,0.0123,0.0117,0.0118,0.0134,0.0157,0.0174,0.0204,0.0221,0.0241,0.0265,0.0284,0.0319,0.0348,0.035,0.0381,0.036,0.0378,0.0401,0.0432,0.0391,0.0381,0.0376,0.0457,0.0458,0.0459,0.046,0,0,0.0114,0.0104,0.0115,0.0115,0.0154,0.0172,0.0188,0.0217,0.022,0.0253,0.0252,0.0283,0.0283,0.0307,0.0321,0.031,0.0268,0.0343,0.0345,0.0323,0.0251,0.0234,0.0227,0.0289,0.0288,0.0288,0.025,0,0.0106,0.01,0.0107,0.0121,0.0118,0.0152,0.0168,0.0195,0.0225,0.0237,0.0243,0.0262,0.0275,0.0274,0.0262,0.0279,0.0255,0.0276,0.0299,0.03,0.0285,0.0221,0.0271,0.024,0.0246,0.0245,0.0244,0,0.0102,0.0093,0.0093,0.01,0.0104,0.0115,0.0145,0.017,0.0189,0.0206,0.0204,0.0226,0.0211,0.0225,0.0213,0.0233,0.0231,0.0234,0.0233,0.0245,0.0274,0.0286,0.0232,0.0204,0.0237,0.0238,0.0238,0,0.0104,0.0103,0.0105,0.0114,0.0117,0.0114,0.0124,0.0148,0.0176,0.0179,0.0185,0.0182,0.0183,0.0177,0.0193,0.0205,0.0181,0.0199,0.0172,0.0172,0.0232,0.0238,0.015,0.0168,0.0168,0.0168,0.0169,0,0.0115,0.0111,0.0096,0.0097,0.0092,0.01,0.0103,0.0116,0.0135,0.0165,0.0164,0.0173,0.0175,0.0176,0.0177,0.016,0.0167,0.0149,0.0154,0.0204,0.0208,0.0203,0.0183,0.0167,0.0167,0.0168,0.0168,0,0.0106,0.0112,0.0105,0.0094,0.0089,0.0089,0.0093,0.0095,0.0114,0.0144,0.0147,0.017,0.0169,0.0164,0.0158,0.0141,0.0127,0.0115,0.0168,0.0179,0.0113,0.0087,0.0001,0.0088,0.0064,0.0063,0.0063,0,0.0117,0.0093,0.0098,0.0111,0.01,0.0086,0.0073,0.0081,0.0096,0.0152,0.0165,0.0175,0.02,0.0165,0.0141,0.0113,0.0114,0.0109,0.0124,0.0092,0.0068,0.0047,0.0129,0.0172,0.0173,0.0173,0.0173,0,0.01,0.0095,0.0092,0.0097,0.0093,0.0094,0.008,0.0082,0.0113,0.0141,0.0201,0.0233,0.0217,0.0219,0.0161,0.0146,0.012,0.011,0.0075,0.0127,0.0104,0.0199,0.0207,0.0175,0.0175,0.0175,0.0175,0.0175,0.0109,0.01,0.01,0.01,0.0099,0.0109,0.011,0.0109,0.0139,0.0219,0.0236,0.0326,0.0326,0.0264,0.0195,0.0115,0.0126,0.0104,0.0069,0.0046,0.0137,0.013,0.0106,0.0105,0.0105,0.0104,0.0104,0,0.0129,0.0099,0.0104,0.0124,0.012,0.0122,0.0128,0.0145,0.0173,0.0276,0.0346,0.048,0.0403,0.0346,0.0214,0.011,0.0141,0.0059,0.0061,0.0152,0.0144,0.0159,0.0148,0.0148,0.0148,0.0148,0.0148,0.0148,0.0139,0.0135,0.0117,0.0133,0.0145,0.0159,0.017,0.0202,0.0279,0.0434,0.0586,0.0718,0.0812,0.0353,0.0133,0.0073,0.008,-0.0008,0.0033,0.0018,0.002,0.0023,0.0031,-0.0006,-0.0006,0.0128,0.0129,0.0129]}],[{"header":{"parameterUnit":"m.s-1","parameterCategory":2,"la1":30.2991,"la2":30.254,"lo1":-89.0895,"lo2":-89.0444,"dy":0.0017,"dx":0.0017,"nx":28,"ny":28,"refTime":"2023-07-20T09:00:00:Z","depth":"2","parameterNumber":2,"parameterNumberName":"U-component_of_CURRENTS"},"data":[0,0,0,0,0,0,0,0,0,0,0,0,0,0,0,0,0,0,0,0,0,0,0,0,0,0,0,0,0,0,0,0,0,0,0,0,0,0,0,0,0,0,0,0,0,0,0,0,0,0,0,0,0,0,0,0,0,0,0.0492,0.049,0,0.0551,0.0554,0.0557,0.0963,0.097,0.0978,0.0984,0.0828,0.0818,0.0807,0,0,0,0,0,0,0,0,0,0,0,0,0,0.0731,0.0727,0.0492,0.049,0.0488,0.055,0.0554,0.0558,0.0962,0.0971,0.0979,0.0988,0.0832,0.0819,0.0806,0,0,0,0,0,0,0,0,0,0,0,0,0,0.072,0.0726,0.0492,0.0676,0.0691,0.055,0.0554,0.0559,0.096,0.0971,0.0982,0.0992,0.0836,0.082,0.0804,0.0486,0,0,0.0754,0.0747,0,0,0,0,0,0,0,0,0.072,0.0715,0.0651,0.0662,0.0679,0.0735,0.058,0.0513,0.0957,0.0889,0.0985,0.0997,0.0749,0.0741,0.0773,0.0479,0.0472,0.0753,0.0743,0.0736,0.0731,0,0,0,0,0,0,0,0.0721,0.0714,0.0545,0.0647,0.0664,0.0753,0.0767,0.0573,0.0776,0.0896,0.0918,0.0874,0.0762,0.0788,0.0771,0.047,0.0753,0.0738,0.0728,0.0722,0.0414,0.0415,0,0,0,0,0,0,0.064,0.0713,0.0543,0.0544,0.0694,0.0738,0.0755,0.073,0.0784,0.0796,0.0864,0.0892,0.0811,0.079,0.0766,0.084,0.0736,0.072,0.0711,0.0412,0.0414,0.0416,0,0,0,0,0,0,0.0646,0.0625,0.054,0.0607,0.0599,0.0719,0.069,0.0725,0.09,0.0757,0.0775,0.1019,0.0819,0.0789,0.0823,0.082,0.0713,0.0698,0.041,0.0413,0.0415,0.0695,0,0,0,0,0,0,0.0653,0.0628,0.0621,0.0601,0.0591,0.0568,0.0677,0.0717,0.0832,0.0875,0.0886,0.0879,0.0825,0.085,0.0807,0.0795,0.0685,0.0408,0.0411,0.0414,0.0684,0.0707,0.0727,0,0,0,0,0,0.0662,0.0652,0.0621,0.0601,0.0566,0.0566,0.0578,0.0717,0.083,0.092,0.1001,0.0887,0.0837,0.084,0.0789,0.0772,0.0407,0.0411,0.0414,0.0674,0.0702,0.0726,0,0,0,0,0,0,0.0812,0.0684,0.0656,0.0622,0.0615,0.0628,0.0667,0.0759,0.0891,0.0907,0.0913,0.0907,0.0904,0.08,0.0805,0.0694,0.059,0.0584,0.0805,0.0829,0.085,0.0828,0.0672,0,0,0,0,0,0.0789,0.0769,0.0652,0.0662,0.0603,0.0641,0.0667,0.0717,0.0779,0.0862,0.0901,0.0881,0.0834,0.0834,0.0731,0.0664,0.0589,0.0616,0.0638,0.0657,0.0607,0.0533,0.0544,0.0428,0.0428,0.0428,0,0,0.086,0.0782,0.0781,0.069,0.0669,0.0646,0.0704,0.0702,0.0759,0.0777,0.0931,0.0917,0.0829,0.0817,0.0798,0.0768,0.0683,0.0662,0.068,0.0617,0.0538,0.0549,0.0559,0.043,0.043,0.043,0,0,0.094,0.0879,0.0836,0.0801,0.0689,0.0693,0.0715,0.0721,0.08,0.0848,0.0907,0.0968,0.0885,0.0898,0.0866,0.0911,0.0773,0.0856,0.0967,0.0901,0.0909,0.0915,0.0984,0.0993,0.0899,0.0899,0.09,0,0.0972,0.0931,0.0852,0.0782,0.0753,0.0739,0.07,0.0741,0.0822,0.0853,0.0918,0.0937,0.0908,0.0918,0.1014,0.095,0.0937,0.0898,0.0932,0.0935,0.0936,0.1002,0.1009,0.0913,0.0912,0.091,0.0909,0,0.1003,0.0962,0.0939,0.0846,0.0835,0.0796,0.0734,0.0809,0.088,0.0917,0.0951,0.0971,0.102,0.1016,0.1048,0.1052,0.1057,0.0953,0.0878,0.0965,0.1031,0.1033,0.0933,0.0928,0.0924,0.0921,0,0,0.0984,0.0946,0.0915,0.0868,0.0828,0.0781,0.0855,0.086,0.0935,0.0977,0.1075,0.109,0.114,0.1108,0.1138,0.1125,0.1239,0.1095,0.1085,0.1186,0.1205,0.1113,0.1106,0.1153,0.1151,0.115,0.1303,0,0.0979,0.0892,0.0888,0.0862,0.0798,0.0808,0.0891,0.0906,0.0991,0.1098,0.1059,0.1122,0.1153,0.1215,0.1219,0.1197,0.1231,0.1212,0.1078,0.1075,0.0997,0.1096,0.1057,0.1174,0.1304,0.1304,0.1305,0,0.0931,0.0885,0.0844,0.081,0.0766,0.0808,0.0881,0.0921,0.1045,0.1113,0.1201,0.1211,0.1282,0.1238,0.1258,0.1258,0.1262,0.1227,0.1229,0.1008,0.0978,0.1071,0.1171,0.1306,0.1306,0.1306,0.1306,0,0.0898,0.0811,0.0795,0.0781,0.0785,0.0803,0.0824,0.0955,0.0977,0.1144,0.1192,0.128,0.1306,0.1278,0.1299,0.1296,0.1256,0.1227,0.1145,0.1146,0.1001,0.0987,0.1172,0.1171,0.1171,0.1171,0.117,0,0.0865,0.0814,0.0782,0.0762,0.0749,0.0742,0.0798,0.089,0.1,0.1063,0.1179,0.1202,0.1296,0.13,0.131,0.1256,0.1277,0.1162,0.1141,0.1114,0.1108,0.1074,0.106,0.1177,0.1175,0.1174,0.1173,0,0.0833,0.0838,0.0782,0.0753,0.0751,0.0727,0.0742,0.0827,0.0909,0.1008,0.1043,0.116,0.123,0.1292,0.1306,0.1254,0.1204,0.1161,0.1202,0.1177,0.1175,0.1175,0.1144,0.1141,0.1139,0.1137,0.1135,0,0.0799,0.0795,0.0744,0.0735,0.0734,0.0712,0.078,0.0844,0.0922,0.0949,0.0981,0.106,0.1122,0.1114,0.1126,0.1165,0.1179,0.1082,0.1004,0.1171,0.1155,0.1158,0.1161,0.1033,0.103,0.1029,0.1027,0,0.0748,0.0766,0.0742,0.0713,0.0755,0.0755,0.0796,0.0824,0.0927,0.0966,0.0996,0.0985,0.1016,0.1021,0.1023,0.1,0.1085,0.1036,0.1161,0.0994,0.106,0.1047,0.1054,0.101,0.1011,0.1013,0.1014,0.1014,0.0702,0.0703,0.0699,0.067,0.0724,0.0773,0.0771,0.0824,0.0872,0.0866,0.0949,0.0889,0.0831,0.0784,0.0807,0.0906,0.0934,0.0914,0.0923,0.0934,0.084,0.0891,0.0804,0.0804,0.0805,0.0805,0.0806,0,0.0586,0.064,0.063,0.0633,0.0672,0.0709,0.0777,0.0763,0.079,0.0813,0.0825,0.0679,0.0625,0.0652,0.0762,0.0736,0.0763,0.0751,0.0812,0.0828,0.0842,0.0746,0.0685,0.0685,0.0684,0.0684,0,0,0.0544,0.0534,0.056,0.0586,0.0594,0.0642,0.0674,0.0657,0.063,0.0557,0.0528,0.047,0.0497,0.0491,0.0548,0.0673,0.0736,0.0657,0.075,0.083,0.0843,0.0928,0.0795,0,0,0,0,0]},{"header":{"parameterUnit":"m.s-1","parameterCategory":2,"la1":30.2991,"la2":30.254,"lo1":-89.0895,"lo2":-89.0444,"dy":0.0017,"dx":0.0017,"nx":28,"ny":28,"refTime":"2023-07-20T09:00:00:Z","depth":"2","parameterNumber":3,"parameterNumberName":"V-component_of_CURRENTS"},"data":[0,0,0,0,0,0,0,0,0,0,0,0,0,0,0,0,0,0,0,0,0,0,0,0,0,0,0,0,0,0,0,0,0,0,0,0,0,0,0,0,0,0,0,0,0,0,0,0,0,0,0,0,0,0,0,0,0,0,-0.0401,-0.0402,0,-0.0314,-0.0311,-0.0308,-0.0179,-0.0178,-0.0178,-0.0178,-0.0264,-0.0267,-0.0269,0,0,0,0,0,0,0,0,0,0,0,0,0,-0.0273,-0.0276,-0.0401,-0.0402,-0.0403,-0.0314,-0.0311,-0.0308,-0.0179,-0.0178,-0.0178,-0.0178,-0.0264,-0.0267,-0.027,0,0,0,0,0,0,0,0,0,0,0,0,0,-0.0251,-0.0276,-0.0401,-0.0344,-0.034,-0.0315,-0.0311,-0.0307,-0.0179,-0.0178,-0.0178,-0.0178,-0.0263,-0.0266,-0.027,-0.03,0,0,-0.0282,-0.0283,0,0,0,0,0,0,0,0,-0.0253,-0.0253,-0.0352,-0.0348,-0.0344,-0.0276,-0.0299,-0.0321,-0.0179,-0.0216,-0.0178,-0.0178,-0.03,-0.03,-0.025,-0.0304,-0.0308,-0.0282,-0.0284,-0.0286,-0.0287,0,0,0,0,0,0,0,-0.0254,-0.0255,-0.0344,-0.0353,-0.0349,-0.0263,-0.0258,-0.0299,-0.0247,-0.0213,-0.0209,-0.0235,-0.0295,-0.0246,-0.0252,-0.0309,-0.0282,-0.0285,-0.0287,-0.0289,-0.0385,-0.0385,0,0,0,0,0,0,-0.0321,-0.0258,-0.0347,-0.0343,-0.0322,-0.0268,-0.0262,-0.028,-0.0242,-0.0241,-0.0236,-0.023,-0.024,-0.0248,-0.0255,-0.0247,-0.0286,-0.0289,-0.0291,-0.0385,-0.0385,-0.0385,0,0,0,0,0,0,-0.0318,-0.0329,-0.0351,-0.0316,-0.0316,-0.0274,-0.0293,-0.0279,-0.0212,-0.0262,-0.0259,-0.0186,-0.024,-0.025,-0.0235,-0.0252,-0.0291,-0.0294,-0.0384,-0.0385,-0.0385,-0.0261,0,0,0,0,0,0,-0.0314,-0.0328,-0.033,-0.0321,-0.0322,-0.03,-0.0296,-0.0278,-0.0242,-0.0232,-0.022,-0.0227,-0.0241,-0.0228,-0.0239,-0.0258,-0.0297,-0.0384,-0.0385,-0.0385,-0.0264,-0.0257,-0.025,0,0,0,0,0,-0.031,-0.0326,-0.033,-0.034,-0.0337,-0.0301,-0.0286,-0.0241,-0.024,-0.0182,-0.017,-0.0226,-0.0242,-0.0229,-0.0242,-0.0263,-0.0384,-0.0384,-0.0385,-0.0267,-0.0258,-0.025,0,0,0,0,0,0,-0.0283,-0.0317,-0.032,-0.0349,-0.0316,-0.0287,-0.0276,-0.0235,-0.0172,-0.0199,-0.0197,-0.0201,-0.0203,-0.0252,-0.0238,-0.0298,-0.0338,-0.0341,-0.0245,-0.0237,-0.023,-0.0242,-0.0301,0,0,0,0,0,-0.0287,-0.028,-0.0306,-0.0309,-0.0334,-0.0298,-0.0277,-0.0254,-0.0229,-0.0197,-0.0176,-0.0202,-0.0219,-0.0236,-0.0256,-0.0278,-0.0317,-0.0315,-0.0307,-0.0301,-0.0321,-0.0363,-0.036,-0.0387,-0.0387,-0.0387,0,0,-0.0277,-0.0296,-0.0292,-0.0298,-0.03,-0.0282,-0.0277,-0.0276,-0.0234,-0.0234,-0.0165,-0.0168,-0.0216,-0.0215,-0.0229,-0.0256,-0.0305,-0.0301,-0.0295,-0.032,-0.0363,-0.036,-0.0358,-0.0388,-0.0388,-0.0388,0,0,-0.0263,-0.0294,-0.0294,-0.0271,-0.0295,-0.0275,-0.0274,-0.0246,-0.0219,-0.0167,-0.0166,-0.016,-0.0169,-0.0184,-0.0208,-0.019,-0.0256,-0.0221,-0.0203,-0.024,-0.0238,-0.0237,-0.0235,-0.0235,-0.0229,-0.0229,-0.0229,0,-0.024,-0.0256,-0.0276,-0.0272,-0.0263,-0.0273,-0.026,-0.0233,-0.0167,-0.0178,-0.015,-0.0142,-0.0164,-0.0186,-0.0158,-0.0177,-0.0191,-0.0217,-0.0228,-0.0228,-0.0228,-0.0228,-0.023,-0.0223,-0.0223,-0.0224,-0.0225,0,-0.0232,-0.0226,-0.0241,-0.0226,-0.0202,-0.02,-0.0212,-0.0187,-0.0175,-0.015,-0.0149,-0.0126,-0.0128,-0.0137,-0.0133,-0.016,-0.0161,-0.0196,-0.0238,-0.0217,-0.0219,-0.0222,-0.0214,-0.0216,-0.0218,-0.022,0,0,-0.0195,-0.0226,-0.021,-0.0216,-0.0189,-0.0182,-0.017,-0.017,-0.0174,-0.0131,-0.0114,-0.0112,-0.0105,-0.0131,-0.0127,-0.0151,-0.0128,-0.0163,-0.0168,-0.0142,-0.0175,-0.0159,-0.0161,-0.0152,-0.0153,-0.0154,-0.0155,0,-0.0166,-0.0164,-0.0161,-0.0121,-0.0147,-0.0148,-0.0116,-0.0121,-0.0111,-0.0089,-0.014,-0.0115,-0.0107,-0.0088,-0.0107,-0.013,-0.014,-0.0123,-0.022,-0.0223,-0.0195,-0.0167,-0.0131,-0.0129,-0.0159,-0.016,-0.016,0,-0.0136,-0.0147,-0.0129,-0.0131,-0.0145,-0.0099,-0.01,-0.0073,-0.0093,-0.0089,-0.0093,-0.0098,-0.0112,-0.0105,-0.0147,-0.013,-0.0144,-0.0163,-0.0164,-0.0208,-0.0215,-0.0169,-0.0135,-0.0167,-0.0166,-0.0166,-0.0165,0,-0.0118,-0.011,-0.01,-0.0087,-0.0089,-0.0093,-0.0086,-0.0085,-0.008,-0.0083,-0.0083,-0.0093,-0.0094,-0.013,-0.0149,-0.0147,-0.0198,-0.0213,-0.0213,-0.021,-0.0235,-0.0233,-0.0255,-0.0255,-0.0255,-0.0255,-0.0255,0,-0.0076,-0.007,-0.0102,-0.0094,-0.0097,-0.0097,-0.0087,-0.0083,-0.0064,-0.0052,-0.0079,-0.0077,-0.0102,-0.013,-0.0152,-0.0184,-0.0206,-0.0208,-0.0219,-0.0185,-0.018,-0.0277,-0.028,-0.0255,-0.0255,-0.0255,-0.0255,0,-0.006,-0.0056,-0.0069,-0.0087,-0.0092,-0.0095,-0.0087,-0.0081,-0.007,-0.0048,-0.0048,-0.0066,-0.01,-0.0127,-0.0169,-0.0186,-0.0224,-0.023,-0.0163,-0.0166,-0.0203,-0.0199,-0.0232,-0.0232,-0.0231,-0.0231,-0.0231,0,-0.0037,-0.006,-0.008,-0.007,-0.0076,-0.009,-0.0092,-0.0075,-0.006,-0.0048,-0.0047,-0.0066,-0.0061,-0.0126,-0.0148,-0.0171,-0.0214,-0.018,-0.0186,-0.0198,-0.0205,-0.0202,-0.0199,-0.0146,-0.0145,-0.0144,-0.0144,0,-0.0029,-0.0048,-0.0059,-0.007,-0.006,-0.0063,-0.007,-0.0062,-0.0032,-0.0022,0.0003,0.0014,-0.002,-0.0036,-0.0079,-0.0105,-0.0171,-0.0166,-0.0219,-0.0159,-0.0118,-0.0124,-0.0124,-0.0137,-0.0138,-0.0138,-0.0139,-0.0139,-0.001,-0.0022,-0.0037,-0.0051,-0.0044,-0.0029,-0.002,-0.0019,0.0011,0.0059,0.0061,0.0095,0.002,-0.0,-0.0059,-0.0097,-0.0107,-0.0139,-0.0141,-0.0144,-0.0136,-0.0098,-0.0108,-0.0109,-0.0109,-0.0109,-0.011,0,0.0007,-0.0013,-0.0018,-0.0005,-0.0007,-0.0003,0.0008,0.0022,0.005,0.0112,0.0169,0.0135,0.0104,0.0033,0.0007,-0.005,-0.0048,-0.0088,-0.0082,-0.0088,-0.0092,-0.0082,-0.004,-0.004,-0.004,-0.004,0,0,0.0027,0.0021,-0.0,0.0031,0.0033,0.0066,0.0083,0.01,0.0135,0.0177,0.0232,0.0249,0.0153,0.0102,0.0016,0.001,-0.0021,0.0009,-0.0036,-0.0023,-0.0027,-0.0107,-0.0094,0,0,0,0,0]}],[{"header":{"parameterUnit":"m.s-1","parameterCategory":2,"la1":30.2991,"la2":30.254,"lo1":-89.0895,"lo2":-89.0444,"dy":0.0017,"dx":0.0017,"nx":28,"ny":28,"refTime":"2023-07-20T09:00:00:Z","depth":"4","parameterNumber":2,"parameterNumberName":"U-component_of_CURRENTS"},"data":[0,0,0,0,0,0,0,0,0,0,0,0,0,0,0,0,0,0,0,0,0,0,0,0,0,0,0,0,0,0,0,0,0,0,0,0,0,0,0,0,0,0,0,0,0,0,0,0,0,0,0,0,0,0,0,0,0,0,-0.0646,-0.0646,0,-0.0674,-0.0676,-0.0677,-0.0738,-0.0738,-0.0739,-0.0739,-0.0762,-0.0763,-0.0763,0,0,0,0,0,0,0,0,0,0,0,0,0,-0.0614,-0.0616,-0.0646,-0.0646,-0.0645,-0.0674,-0.0676,-0.0677,-0.0738,-0.0738,-0.0739,-0.0739,-0.0762,-0.0763,-0.0763,0,0,0,0,0,0,0,0,0,0,0,0,0,-0.0643,-0.0616,-0.0646,-0.0672,-0.0674,-0.0674,-0.0676,-0.0677,-0.0738,-0.0738,-0.0739,-0.0739,-0.0762,-0.0762,-0.0763,-0.0754,0,0,-0.0764,-0.0764,0,0,0,0,0,0,0,0,-0.0641,-0.0645,-0.0669,-0.067,-0.0672,-0.0695,-0.0672,-0.0699,-0.0738,-0.0724,-0.0739,-0.074,-0.0733,-0.0736,-0.0753,-0.0755,-0.0756,-0.0764,-0.0764,-0.0764,-0.0765,0,0,0,0,0,0,0,-0.0639,-0.0644,-0.0667,-0.0668,-0.067,-0.0671,-0.0677,-0.0678,-0.0732,-0.0725,-0.0727,-0.0715,-0.0735,-0.0753,-0.0754,-0.0756,-0.0764,-0.0764,-0.0765,-0.0765,-0.0894,-0.0897,0,0,0,0,0,0,-0.0618,-0.0642,-0.0666,-0.0667,-0.0647,-0.0671,-0.0678,-0.0695,-0.0732,-0.0735,-0.0714,-0.0718,-0.0752,-0.0753,-0.0755,-0.0883,-0.0764,-0.0765,-0.0765,-0.0891,-0.0895,-0.0898,0,0,0,0,0,0,-0.0618,-0.0621,-0.0665,-0.0646,-0.065,-0.067,-0.0689,-0.0695,-0.0729,-0.0722,-0.0728,-0.0742,-0.0752,-0.0754,-0.0793,-0.0879,-0.0765,-0.0765,-0.0887,-0.0892,-0.0897,-0.105,0,0,0,0,0,0,-0.0618,-0.0622,-0.0632,-0.0646,-0.065,-0.0672,-0.0687,-0.0695,-0.0715,-0.072,-0.0747,-0.075,-0.0753,-0.0793,-0.0793,-0.0877,-0.0766,-0.0883,-0.089,-0.0895,-0.1041,-0.106,-0.1076,0,0,0,0,0,-0.0617,-0.0633,-0.0634,-0.0636,-0.0664,-0.0671,-0.0675,-0.0696,-0.0715,-0.0731,-0.0769,-0.075,-0.0832,-0.0795,-0.0795,-0.0881,-0.088,-0.0888,-0.0895,-0.1034,-0.1056,-0.1075,0,0,0,0,0,0,-0.0616,-0.0639,-0.0641,-0.0661,-0.0663,-0.0678,-0.0695,-0.0704,-0.0747,-0.0759,-0.0772,-0.0777,-0.085,-0.0833,-0.0792,-0.0937,-0.086,-0.0868,-0.0966,-0.0987,-0.1004,-0.0995,-0.0766,0,0,0,0,0,-0.0617,-0.0651,-0.0648,-0.0665,-0.0671,-0.0686,-0.0693,-0.07,-0.0728,-0.075,-0.0775,-0.0816,-0.0877,-0.0903,-0.0929,-0.0989,-0.0926,-0.1051,-0.1068,-0.1083,-0.1078,-0.1081,-0.1098,-0.0922,-0.0922,-0.0922,0,0,-0.0614,-0.0636,-0.0648,-0.0668,-0.0683,-0.0684,-0.0697,-0.0711,-0.0714,-0.0741,-0.0787,-0.0862,-0.0903,-0.0994,-0.1026,-0.0993,-0.1092,-0.1092,-0.1105,-0.1091,-0.1091,-0.1107,-0.1122,-0.0927,-0.0926,-0.0925,0,0,-0.0617,-0.0654,-0.0671,-0.0685,-0.0694,-0.0695,-0.0699,-0.0722,-0.0743,-0.0786,-0.0842,-0.0963,-0.1008,-0.1095,-0.1137,-0.1253,-0.1177,-0.128,-0.1371,-0.1376,-0.139,-0.1401,-0.1302,-0.1303,-0.1298,-0.1298,-0.1299,0,-0.0619,-0.064,-0.067,-0.0689,-0.0697,-0.0701,-0.0703,-0.0716,-0.075,-0.0796,-0.0808,-0.1011,-0.1059,-0.1216,-0.13,-0.1294,-0.1245,-0.1293,-0.1397,-0.1407,-0.1416,-0.1312,-0.1311,-0.1307,-0.1306,-0.1305,-0.1304,0,-0.062,-0.0646,-0.0664,-0.0692,-0.0698,-0.0712,-0.0712,-0.074,-0.0779,-0.0825,-0.0979,-0.1089,-0.1233,-0.1295,-0.1347,-0.1488,-0.141,-0.141,-0.134,-0.1443,-0.1326,-0.1323,-0.1318,-0.1315,-0.1313,-0.1311,0,0,-0.0632,-0.066,-0.0673,-0.0679,-0.0709,-0.0709,-0.0729,-0.0769,-0.0795,-0.0915,-0.1008,-0.123,-0.1355,-0.1413,-0.1523,-0.1568,-0.1617,-0.1548,-0.1544,-0.1437,-0.1555,-0.1367,-0.1343,-0.1646,-0.1648,-0.1649,-0.1431,0,-0.0634,-0.0652,-0.067,-0.0682,-0.0687,-0.0718,-0.0732,-0.0776,-0.0823,-0.0908,-0.1103,-0.126,-0.1374,-0.1517,-0.1584,-0.1632,-0.1622,-0.167,-0.1479,-0.1471,-0.1285,-0.134,-0.1654,-0.1428,-0.1427,-0.1426,-0.1426,0,-0.0627,-0.065,-0.0657,-0.068,-0.0689,-0.07,-0.0739,-0.0755,-0.0872,-0.0944,-0.1154,-0.1293,-0.1523,-0.1551,-0.1647,-0.168,-0.1631,-0.161,-0.1601,-0.1368,-0.1279,-0.1314,-0.1418,-0.1419,-0.1419,-0.142,-0.142,0,-0.0598,-0.0637,-0.0642,-0.0659,-0.0685,-0.0714,-0.074,-0.0804,-0.0854,-0.1022,-0.1122,-0.134,-0.1487,-0.1529,-0.155,-0.1635,-0.1487,-0.1583,-0.132,-0.1301,-0.1464,-0.1455,-0.1541,-0.1541,-0.1542,-0.1542,-0.1543,0,-0.0592,-0.0607,-0.0642,-0.0652,-0.0677,-0.0711,-0.0748,-0.0798,-0.0917,-0.0961,-0.1201,-0.1254,-0.1496,-0.147,-0.1479,-0.1346,-0.1428,-0.1315,-0.1251,-0.1527,-0.1528,-0.1457,-0.145,-0.1534,-0.1536,-0.1537,-0.1539,0,-0.0561,-0.0585,-0.0599,-0.0644,-0.0658,-0.0693,-0.0782,-0.0809,-0.0934,-0.0993,-0.1106,-0.1246,-0.1224,-0.1277,-0.1241,-0.1224,-0.1125,-0.1003,-0.1173,-0.1123,-0.0959,-0.0964,-0.0814,-0.0806,-0.08,-0.0794,-0.0789,0,-0.0532,-0.0536,-0.0582,-0.0598,-0.0632,-0.0688,-0.0712,-0.0829,-0.0839,-0.0913,-0.0921,-0.0982,-0.1031,-0.081,-0.087,-0.0791,-0.0779,-0.0719,-0.1011,-0.0941,-0.0894,-0.0909,-0.0922,-0.0778,-0.0777,-0.0775,-0.0773,0,-0.049,-0.052,-0.0529,-0.0558,-0.0594,-0.0606,-0.0636,-0.0681,-0.0744,-0.0865,-0.0769,-0.0789,-0.0662,-0.0671,-0.0547,-0.0505,-0.0819,-0.0652,-0.0673,-0.0947,-0.0895,-0.0859,-0.088,-0.0749,-0.0753,-0.0755,-0.0756,0,-0.0464,-0.0463,-0.0474,-0.0508,-0.052,-0.0498,-0.0545,-0.0522,-0.0571,-0.0667,-0.055,-0.0547,-0.0562,-0.0494,-0.0363,-0.0335,-0.0443,-0.0523,-0.0553,-0.058,-0.0618,-0.0525,-0.0193,0,0,0,0,0,-0.0435,-0.0425,-0.0422,-0.042,-0.0415,-0.0421,-0.0453,-0.0498,-0.0559,-0.0469,-0.0536,-0.0404,-0.0335,-0.031,-0.0253,-0.03,-0.0448,-0.0234,-0.0558,-0.0618,-0.0646,-0.072,0,0,0,0,0,0,-0.0414,-0.0412,-0.0401,-0.0322,-0.0302,-0.0272,-0.0303,-0.0346,-0.0297,-0.0367,-0.0319,-0.036,-0.0286,-0.0336,-0.0229,-0.0226,-0.0422,-0.0225,-0.0224,-0.0603,-0.0628,-0.065,-0.0735,0,0,0,0,0]},{"header":{"parameterUnit":"m.s-1","parameterCategory":2,"la1":30.2991,"la2":30.254,"lo1":-89.0895,"lo2":-89.0444,"dy":0.0017,"dx":0.0017,"nx":28,"ny":28,"refTime":"2023-07-20T09:00:00:Z","depth":"4","parameterNumber":3,"parameterNumberName":"V-component_of_CURRENTS"},"data":[0,0,0,0,0,0,0,0,0,0,0,0,0,0,0,0,0,0,0,0,0,0,0,0,0,0,0,0,0,0,0,0,0,0,0,0,0,0,0,0,0,0,0,0,0,0,0,0,0,0,0,0,0,0,0,0,0,0,-0.0157,-0.0157,0,-0.02,-0.0201,-0.0202,-0.0207,-0.0206,-0.0205,-0.0204,-0.0257,-0.0259,-0.0262,0,0,0,0,0,0,0,0,0,0,0,0,0,-0.0114,-0.0115,-0.0157,-0.0157,-0.0157,-0.02,-0.0201,-0.0202,-0.0207,-0.0206,-0.0204,-0.0203,-0.0256,-0.0259,-0.0262,0,0,0,0,0,0,0,0,0,0,0,0,0,-0.0149,-0.0116,-0.0157,-0.0159,-0.0159,-0.02,-0.0201,-0.0203,-0.0207,-0.0206,-0.0204,-0.0203,-0.0255,-0.0259,-0.0262,-0.0318,0,0,-0.0274,-0.0275,0,0,0,0,0,0,0,0,-0.0147,-0.0152,-0.0159,-0.0159,-0.0159,-0.019,-0.0205,-0.0239,-0.0208,-0.0197,-0.0204,-0.0202,-0.0232,-0.0237,-0.0259,-0.032,-0.0323,-0.0274,-0.0276,-0.0278,-0.0279,0,0,0,0,0,0,0,-0.0145,-0.015,-0.0181,-0.0159,-0.0159,-0.0169,-0.0173,-0.0212,-0.0229,-0.0198,-0.0196,-0.019,-0.0233,-0.0256,-0.0261,-0.0324,-0.0274,-0.0277,-0.0279,-0.0281,-0.0412,-0.0414,0,0,0,0,0,0,-0.0125,-0.0148,-0.018,-0.0182,-0.0141,-0.0171,-0.0175,-0.0188,-0.0228,-0.0231,-0.0191,-0.019,-0.0251,-0.0256,-0.0262,-0.032,-0.0278,-0.0281,-0.0283,-0.0411,-0.0413,-0.0414,0,0,0,0,0,0,-0.0125,-0.0129,-0.0178,-0.0159,-0.0165,-0.0172,-0.0187,-0.0189,-0.0208,-0.0222,-0.0226,-0.0205,-0.0249,-0.0257,-0.0318,-0.0322,-0.0283,-0.0286,-0.041,-0.0412,-0.0413,-0.0443,0,0,0,0,0,0,-0.0124,-0.0129,-0.014,-0.0158,-0.0165,-0.0202,-0.0188,-0.0191,-0.0203,-0.0202,-0.0236,-0.0239,-0.0249,-0.0313,-0.0322,-0.0327,-0.0289,-0.0408,-0.0411,-0.0413,-0.044,-0.0446,-0.045,0,0,0,0,0,-0.0123,-0.0142,-0.0141,-0.0144,-0.0177,-0.0202,-0.0209,-0.0212,-0.0205,-0.0222,-0.0257,-0.0238,-0.0332,-0.0318,-0.0328,-0.0334,-0.0407,-0.041,-0.0413,-0.0438,-0.0445,-0.045,0,0,0,0,0,0,-0.012,-0.0144,-0.0143,-0.0166,-0.018,-0.02,-0.0215,-0.0217,-0.0261,-0.0263,-0.0277,-0.0285,-0.0344,-0.034,-0.0323,-0.0379,-0.0358,-0.0363,-0.0373,-0.038,-0.0385,-0.0366,-0.0292,0,0,0,0,0,-0.0125,-0.0155,-0.0165,-0.0184,-0.0192,-0.0206,-0.0218,-0.0222,-0.0253,-0.0269,-0.0299,-0.0327,-0.0367,-0.0373,-0.042,-0.0453,-0.0422,-0.0456,-0.0461,-0.0465,-0.0457,-0.0402,-0.04,-0.0424,-0.0424,-0.0424,0,0,-0.0126,-0.0144,-0.0158,-0.0187,-0.0201,-0.0227,-0.0212,-0.0234,-0.0268,-0.0271,-0.0343,-0.0368,-0.039,-0.0439,-0.0458,-0.0428,-0.0452,-0.0469,-0.0472,-0.0462,-0.0404,-0.0402,-0.0399,-0.0426,-0.0425,-0.0425,0,0,-0.0142,-0.0162,-0.0189,-0.0209,-0.0228,-0.0245,-0.0249,-0.0282,-0.031,-0.0378,-0.0388,-0.0423,-0.0481,-0.0494,-0.0506,-0.0566,-0.0501,-0.0557,-0.0541,-0.0488,-0.0485,-0.0481,-0.0471,-0.0466,-0.053,-0.0531,-0.0531,0,-0.0142,-0.0181,-0.0198,-0.0227,-0.0246,-0.0252,-0.0282,-0.032,-0.0373,-0.0405,-0.0404,-0.0493,-0.0513,-0.055,-0.0555,-0.0577,-0.0529,-0.0516,-0.0491,-0.0486,-0.0482,-0.0472,-0.0467,-0.0532,-0.0532,-0.0532,-0.0532,0,-0.0175,-0.0209,-0.0227,-0.0274,-0.0297,-0.0327,-0.0363,-0.0408,-0.0439,-0.0469,-0.0538,-0.057,-0.0594,-0.0606,-0.0596,-0.0573,-0.0548,-0.0523,-0.0467,-0.0481,-0.0471,-0.0465,-0.0535,-0.0534,-0.0534,-0.0533,0,0,-0.0179,-0.024,-0.0251,-0.0278,-0.0328,-0.035,-0.0416,-0.0475,-0.051,-0.0565,-0.0613,-0.0663,-0.0639,-0.0648,-0.0631,-0.0576,-0.0523,-0.0508,-0.0504,-0.0485,-0.0404,-0.0422,-0.0416,-0.0454,-0.0452,-0.0451,-0.0421,0,-0.0205,-0.0263,-0.0294,-0.0355,-0.0386,-0.0423,-0.0478,-0.053,-0.0579,-0.0633,-0.0658,-0.0695,-0.0664,-0.0649,-0.0596,-0.0543,-0.0499,-0.0535,-0.0406,-0.0404,-0.0404,-0.0407,-0.0446,-0.0416,-0.0414,-0.0413,-0.0412,0,-0.0242,-0.0272,-0.0329,-0.0397,-0.0413,-0.0452,-0.0528,-0.058,-0.065,-0.0681,-0.0699,-0.0701,-0.0669,-0.0631,-0.0525,-0.0526,-0.046,-0.0421,-0.0418,-0.0412,-0.0407,-0.0393,-0.0399,-0.04,-0.0401,-0.0402,-0.0403,0,-0.0246,-0.0314,-0.0359,-0.0381,-0.0444,-0.0485,-0.053,-0.0597,-0.0648,-0.0694,-0.0706,-0.0685,-0.0661,-0.0567,-0.0498,-0.0465,-0.0395,-0.0348,-0.0326,-0.0329,-0.0307,-0.031,-0.0273,-0.0273,-0.0274,-0.0274,-0.0274,0,-0.0281,-0.0321,-0.0362,-0.0388,-0.044,-0.0485,-0.0556,-0.06,-0.0663,-0.0693,-0.0702,-0.0692,-0.062,-0.0584,-0.0504,-0.0413,-0.0395,-0.0327,-0.031,-0.0329,-0.0335,-0.0304,-0.0308,-0.0273,-0.0273,-0.0273,-0.0273,0,-0.0292,-0.0322,-0.0368,-0.0423,-0.0447,-0.0483,-0.0578,-0.0626,-0.0661,-0.0694,-0.0693,-0.0682,-0.059,-0.0579,-0.0461,-0.0421,-0.0348,-0.0333,-0.041,-0.0399,-0.031,-0.0317,-0.0252,-0.0252,-0.0252,-0.0252,-0.0252,0,-0.0305,-0.0327,-0.0382,-0.0412,-0.0444,-0.0508,-0.0559,-0.0625,-0.0649,-0.0664,-0.0656,-0.0618,-0.0591,-0.0484,-0.0445,-0.0369,-0.0351,-0.0343,-0.0265,-0.0312,-0.0302,-0.0309,-0.0315,-0.0252,-0.0252,-0.0252,-0.0252,0,-0.0315,-0.0333,-0.0363,-0.0415,-0.0466,-0.0524,-0.058,-0.0594,-0.063,-0.0657,-0.0591,-0.0558,-0.0498,-0.043,-0.0431,-0.0358,-0.0354,-0.0342,-0.0338,-0.0265,-0.0312,-0.0304,-0.0309,-0.0252,-0.0252,-0.0252,-0.0252,0,-0.0317,-0.0334,-0.0373,-0.0415,-0.0483,-0.0521,-0.0555,-0.0558,-0.0581,-0.0568,-0.0534,-0.0497,-0.0478,-0.0425,-0.04,-0.0372,-0.0304,-0.0269,-0.0268,-0.0268,-0.0287,-0.035,-0.0282,0,0,0,0,0,-0.0315,-0.0338,-0.0383,-0.0425,-0.0492,-0.0521,-0.0562,-0.0578,-0.058,-0.0519,-0.0528,-0.0462,-0.0405,-0.0389,-0.0346,-0.0383,-0.0319,-0.0333,-0.0283,-0.0254,-0.0254,-0.0276,0,0,0,0,0,0,-0.0321,-0.0356,-0.0371,-0.0424,-0.0459,-0.0517,-0.0541,-0.0536,-0.049,-0.0484,-0.0448,-0.0438,-0.0386,-0.0418,-0.0338,-0.0334,-0.0292,-0.0314,-0.0313,-0.0254,-0.0254,-0.0254,-0.0276,0,0,0,0,0]}]]